This demonstration page uses our WeatherBlox Daily Observations layout. Learn more.

Left ArrowRight Arrow

44.8408, -93.29828

Hourly Observations for August 28, 2019

Temp ( °F °C ) Dew Point ( °F °C ) Humidity (%) Winds ( mph kmh ) Pressure ( in mb ) Visibility ( mi km ) Precip ( " mm )
12:53 am 00:53 Mostly Cloudy 61 16.1 51 10.6 70 70 W 14 22 29.80 1009 10 16 0.00 0.00
1:53 am 01:53 Cloudy 61 16.1 50 10 67 67 W 16 26 29.80 1009 10 16 0.00 0.00
2:53 am 02:53 Mostly Cloudy 60 15.6 51 10.6 72 72 W 15 24 29.81 1009 10 16 0.00 0.00
3:53 am 03:53 Clear 59 15 50 10 72 72 W 14 22 29.82 1010 10 16 0.00 0.00
4:53 am 04:53 Mostly Clear 57 13.9 52 11.1 83 83 WSW 8 13 29.83 1010 10 16 0.00 0.00
5:53 am 05:53 Mostly Clear 57 13.9 52 11.1 83 83 W 9 15 29.84 1011 10 16 0.00 0.00
6:53 am 06:53 Mostly Sunny 57 13.9 51 10.6 81 81 W 12 19 29.86 1011 10 16 0.00 0.00
7:53 am 07:53 Sunny 59 15 51 10.6 75 75 W 14 22 29.88 1012 10 16 0.00 0.00
8:53 am 08:53 Mostly Sunny 61 16.1 50 10 67 67 W 18 30 29.89 1012 10 16 0.00 0.00
9:53 am 09:53 Mostly Sunny 64 17.8 49 9.4 58 58 W 12 19 29.90 1012 10 16 0.00 0.00
10:53 am 10:53 Mostly Sunny 66 18.9 48 8.9 52 52 WNW 20 31 29.90 1013 10 16 0.00 0.00
11:53 am 11:53 Partly Cloudy 67 19.4 49 9.4 53 53 W 17 28 29.91 1013 10 16 0.00 0.00
12:53 pm 12:53 Sunny 69 20.6 49 9.4 49 49 W 18 30 29.90 1013 10 16 0.00 0.00
1:53 pm 13:53 Mostly Sunny 71 21.7 45 7.2 39 39 W 17 28 29.91 1013 10 16 0.00 0.00
2:53 pm 14:53 Sunny 72 22.2 46 7.8 40 40 WNW 16 26 29.91 1013 10 16 0.00 0.00
3:53 pm 15:53 Sunny 72 22.2 46 7.8 40 40 W 20 31 29.90 1013 10 16 0.00 0.00
4:53 pm 16:53 Sunny 72 22.2 48 8.9 43 43 W 18 30 29.90 1012 10 16 0.00 0.00
5:53 pm 17:53 Sunny 72 22.2 48 8.9 43 43 WNW 17 28 29.90 1013 10 16 0.00 0.00
6:53 pm 18:53 Sunny 71 21.7 49 9.4 46 46 W 17 28 29.90 1012 10 16 0.00 0.00
7:53 pm 19:53 Sunny 68 20 50 10 53 53 W 8 13 29.89 1012 10 16 0.00 0.00
8:53 pm 20:53 Clear 67 19.4 50 10 55 55 WSW 6 9 29.90 1012 10 16 0.00 0.00
9:53 pm 21:53 Clear 65 18.3 52 11.1 63 63 SW 6 9 29.90 1013 10 16 0.00 0.00
10:53 pm 22:53 Clear 64 17.8 53 11.7 68 68 SW 7 11 29.90 1012 10 16 0.00 0.00
11:53 pm 23:53 Clear 62 16.7 53 11.7 73 73 SW 6 9 29.89 1012 10 16 0.00 0.00

Powered by AerisWeather